Velovelo
Português Nederlands 日本語 中文
Español English čeština slovenčina
русский italiano polski norsk
français Deutsch svenska عربي
 
 vorige Seite
 einem Freund senden
 Um zu drucken
 ---> Mille Bosses 2005 : Classement du 85 kms

ClassNom PrénomCatégClass catéTempsEcart
1 LESUEUR Bastien C 1 02:34:33:000 00:00:00
2 BELKIS OLIVIER C 2 02:34:34:000 00:00:01
3 MOREL Nicolas C 3 02:34:34:500 00:00:01
4 PEREIRA Thibault D 1 02:34:37:000 00:00:04
5 LINOSSIER Fabien D 2 02:34:37:050 00:00:04
6 VILLETTE Manuel D 3 02:34:37:100 00:00:04
7 BABAD Nicolas C 4 02:34:38:000 00:00:05
8 BOUCHET Arnaud C 5 02:34:39:000 00:00:06
9 CHARVET Ludovic D 4 02:34:39:000 00:00:06
10 KOOMEN PETER E 1 02:34:39:000 00:00:06
11 PERUSSET Camille C 6 02:35:52:000 00:01:19
12 IOHNER Christophe D 5 02:35:53:000 00:01:20
13 RAVACHOL Nicolas C 7 02:35:53:000 00:01:20
14 AJOUX Grégoire C 8 02:35:59:000 00:01:26
15 CATRY Xavier D 6 02:37:20:000 00:02:47
16 IMBERT Julien C 9 02:37:22:000 00:02:49
17 VASSARD François D 7 02:37:32:000 00:02:59
18 DORIN Serge E 2 02:39:24:000 00:04:51
19 DROUIN JEROME D 8 02:39:29:000 00:04:56
20 QUEREL MICHEL F 1 02:39:39:000 00:05:06
21 BUISSON Nicolas D 9 02:40:01:000 00:05:28
22 DUMOULLIN HERVE D 10 02:40:13:000 00:05:40
23 TOMAS Stéphane C 10 02:40:18:000 00:05:45
24 JOLY Michel E 3 02:40:21:000 00:05:48
25 BORNE Jean-Michel E 4 02:40:23:000 00:05:50
26 SORREL STEPHANE D 11 02:40:53:000 00:06:20
27 LEMAIRE Grégory D 12 02:40:56:000 00:06:23
28 MARTIN NICOLAS C 11 02:41:02:000 00:06:29
29 LEVILLAIN Cyril D 13 02:44:00:000 00:09:27
30 BOUSCAL MARC F 2 02:44:03:000 00:09:30
31 BUGLI Philippe D 14 02:44:04:000 00:09:31
32 CAVAGNA Claude E 5 02:44:05:000 00:09:32
33 FASSETTA Emmanuel D 15 02:44:05:000 00:09:32
34 DUCHARNE Rémy D 16 02:44:06:000 00:09:33
35 DAVID Yann D 17 02:44:06:000 00:09:33
36 GARGOUA Hamida E 6 02:44:06:000 00:09:33
37 NAUDIN CHRISTOPHE D 18 02:44:07:000 00:09:34
38 RUGGERI Stéphane D 19 02:44:08:000 00:09:35
39 BERARD SEBASTIEN C 12 02:44:08:000 00:09:35
40 JANUEL Franck C 13 02:44:10:000 00:09:37
41 LAMBERT Rémi C 14 02:44:11:000 00:09:38
42 FEREIRE Bruno D 20 02:44:12:000 00:09:39
43 ESPENELLE James E 7 02:44:13:000 00:09:40
44 SAINT-GERMAIN Olivier D 21 02:44:13:000 00:09:40
45 MACHON Julien C 15 02:44:14:000 00:09:41
46 FERRER Isabelle A 1 02:44:14:000 00:09:41
47 MEANO Thierry E 8 02:44:14:000 00:09:41
48 DELERUE Franck D 22 02:44:29:000 00:09:56
49 CARPENTIER PATRICK E 9 02:45:14:000 00:10:41
50 RELIAUD Laurent D 23 02:45:26:000 00:10:53
51 BOUCHET DAVID C 16 02:46:45:000 00:12:12
52 DELARBRE Dominique E 10 02:46:57:000 00:12:24
53 FERLAY AURELIEN C 17 02:47:02:000 00:12:29
54 GARDEZ Patrick D 24 02:47:03:000 00:12:30
55 PAYSAN René E 11 02:47:20:000 00:12:47
56 MORISOT Olivier D 25 02:47:55:000 00:13:22
57 MERLE Franck D 26 02:49:58:000 00:15:25
58 BERLIER Pierre F 3 02:50:00:000 00:15:27
59 SLEBIODA CHRISTOPHE D 27 02:50:04:000 00:15:31
60 SIMEONE Jean-Pierre E 12 02:50:39:000 00:16:06
61 NIOLLET Romuald C 18 02:50:39:000 00:16:06
62 BAUDRILLARD Eric E 13 02:50:42:000 00:16:09
63 BESSIERE Jérémie C 19 02:51:18:000 00:16:45
64 ECHARDOUR CYRILLE C 20 02:51:22:000 00:16:49
65 SALINAS CHRISTOPHE D 28 02:51:58:000 00:17:25
66 GENTILE Eric D 29 02:52:04:000 00:17:31
67 ROUX ANTOINE C 21 02:52:08:000 00:17:35
68 GENTIL Thierry D 30 02:52:11:000 00:17:38
69 CHABRIER Bastien C 22 02:52:25:000 00:17:52
70 VACHER Alain E 14 02:52:30:000 00:17:57
71 BOFFET Rémi C 23 02:52:34:000 00:18:01
72 BOISSON JEREMY C 24 02:52:49:000 00:18:16
73 FEVRE Jean-Marie C 25 02:52:54:000 00:18:21
74 GUIGNET PASCAL E 15 02:53:03:000 00:18:30
75 MUTIN Hervé C 26 02:53:05:000 00:18:32
76 BOURGEY Loïc D 31 02:53:06:000 00:18:33
77 EUSEBIO Manuel E 16 02:53:38:000 00:19:05
78 GOTTI Lionel C 27 02:53:39:000 00:19:06
79 RIVIERE Sébastien C 28 02:53:39:000 00:19:06
80 MARTI Eric D 32 02:53:40:000 00:19:07
81 GEAY René F 4 02:53:40:000 00:19:07
82 CEZARD Jérôme D 33 02:53:42:000 00:19:09
83 HABONNEAU STEPHANE D 34 02:53:44:000 00:19:11
84 BESSARD CYRIL D 35 02:53:44:000 00:19:11
85 BASSARD PIERRE YVES J 1 02:54:52:000 00:20:19
86 SENEZE FRANCOIS E 17 02:54:52:000 00:20:19
87 DOUTAZ MICHEL E 18 02:54:54:000 00:20:21
88 BOLIS Thierry E 19 02:54:56:000 00:20:23
89 CHASSAGNE Eric E 20 02:56:13:000 00:21:40
90 ALLEGRE Michel E 21 02:56:35:000 00:22:02
91 HAZAK Sébastien D 36 02:56:52:000 00:22:19
92 DAMAS João E 22 02:56:56:000 00:22:23
93 MOUGENOT RAPHAEL C 29 02:57:14:000 00:22:41
94 PAIS MANUEL E 23 02:57:39:000 00:23:06
95 RIBEYRE ROMAIN C 30 02:57:46:000 00:23:13
96 DEBORDE Damien C 31 02:57:56:000 00:23:23
97 GIRAUD Eric E 24 02:58:05:000 00:23:32
98 SCHILLINGER Agnès A 2 02:58:09:000 00:23:36
99 ROBAS GASPARD C 32 02:58:09:000 00:23:36
100 GAGNARD MICHEL E 25 02:58:18:000 00:23:45
101 TARTARAT PATRICK E 26 02:58:23:000 00:23:50
102 MORAND CHRISTOPHE J 2 02:58:26:000 00:23:53
103 SANNET Bernard D 37 02:59:29:000 00:24:56
104 LEBEAUPIN Sophie A 3 02:59:47:000 00:25:14
105 GALLICE YVES F 5 02:59:52:000 00:25:19
106 DUVAL DAVID E 27 02:59:52:000 00:25:19
107 BRAVAIS Philippe D 38 03:00:05:000 00:25:32
108 PEROLD STÉPHANE C 33 03:00:47:000 00:26:14
109 COLLINET GILLES D 39 03:01:44:000 00:27:11
110 MARTINET Olivier D 40 03:01:46:000 00:27:13
111 GUILLEMIN Jacques E 28 03:01:47:000 00:27:14
112 BARTLET Philippe E 29 03:01:54:000 00:27:21
113 LAPOIX Olivier D 41 03:01:54:000 00:27:21
114 HERRERA Michel F 6 03:02:10:000 00:27:37
115 AZEVEDO Joaquim E 30 03:02:29:000 00:27:56
116 POISSON Pascal E 31 03:02:36:000 00:28:03
117 BRAVARD Roland D 42 03:02:47:000 00:28:14
118 FILIPPINO Eric E 32 03:02:48:000 00:28:15
119 DAMIAN Mickaël C 34 03:02:55:000 00:28:22
120 DURY Patrick E 33 03:03:16:000 00:28:43
121 EVEQUE Stéphane C 35 03:03:16:000 00:28:43
122 BOUQUET JACKY E 34 03:03:25:000 00:28:52
123 SEON Damien C 36 03:03:35:000 00:29:02
124 MALACHER Laurent C 37 03:03:48:000 00:29:15
125 BERT Anthony C 38 03:03:49:000 00:29:16
126 IMBERT HERVE D 43 03:03:49:000 00:29:16
127 PARISI Lucas D 44 03:04:29:000 00:29:56
128 BUTIN Eric F 7 03:04:31:000 00:29:58
129 VAUDAUX Thierry E 35 03:04:34:000 00:30:01
130 VAUDAUX Christian D 45 03:05:00:000 00:30:27
131 FORRAT Jacques F 8 03:05:26:000 00:30:53
132 ANSELME DOMINIQUE D 46 03:05:26:000 00:30:53
133 TOMAS Jean-Michel E 36 03:05:35:000 00:31:02
134 GAYNON JEAN LUC E 37 03:05:36:000 00:31:03
135 BLAISE Pascal E 38 03:05:59:000 00:31:26
136 CIGOLOTTI Michel E 39 03:06:36:000 00:32:03
137 HALASKA Patrick F 9 03:06:37:000 00:32:04
138 VEUILLET Stéphane D 47 03:06:38:000 00:32:05
139 KAZANDJIAN RICHARD E 40 03:06:39:000 00:32:06
140 RODRIGUES Jorge D 48 03:06:56:000 00:32:23
141 BOISSEL Jean-Luc E 41 03:07:18:000 00:32:45
142 LABROSSE Marc G 1 03:07:37:000 00:33:04
143 BARTHOLLET Jean-Marc E 42 03:07:44:000 00:33:11
144 FUMEAU LIONEL E 43 03:07:45:000 00:33:12
145 DEBARD Jean-Paul F 10 03:07:47:000 00:33:14
146 HENNION Cédric D 49 03:08:04:000 00:33:31
147 JANKOWSKY Clément C 39 03:08:06:000 00:33:33
148 DERNIERE MINUTE J 3 03:08:11:000 00:33:38
149 BOUZU Bernard G 2 03:08:13:000 00:33:40
150 SIMIAND Thierry E 44 03:08:17:000 00:33:44
151 MENAND PHILIPPE D 50 03:08:52:000 00:34:19
152 BONVALOT-NOIROT Sylvain C 40 03:09:02:000 00:34:29
153 CORTIAL Olivier D 51 03:09:24:000 00:34:51
154 MOUSSET Jean-François C 41 03:09:46:000 00:35:13
155 BOFFET Stéphane C 42 03:09:51:000 00:35:18
156 RIPEPI Damien C 43 03:09:53:000 00:35:20
157 DURAND ERIC D 52 03:09:55:000 00:35:22
158 BRIEL Jean-François D 53 03:09:57:000 00:35:24
159 FRANCHET Odile B 1 03:10:03:000 00:35:30
160 KATZ David D 54 03:10:30:000 00:35:57
161 GIRERD Christophe E 45 03:11:21:000 00:36:48
162 CINY Roger F 11 03:11:55:000 00:37:22
163 CONDEMINE Eric D 55 03:12:03:000 00:37:30
164 CAMUS Blandine A 4 03:12:08:000 00:37:35
166 PRADEL Laurent D 57 03:12:24:000 00:37:51
167 ANZIL Stéphane D 58 03:12:27:000 00:37:54
168 ROSELLO Frédéric C 44 03:12:31:000 00:37:58
169 LE TOUZE Benoit E 46 03:12:32:000 00:37:59
170 JOANNIER Philippe D 59 03:13:05:000 00:38:32
171 VINSON Denis E 47 03:13:06:000 00:38:33
172 DONY Florence A 5 03:13:07:000 00:38:34
173 GARON Philippe D 60 03:13:08:000 00:38:35
174 GUEFFIER Jean-Louis E 48 03:13:08:000 00:38:35
175 RAFFIN Christian F 12 03:13:14:000 00:38:41
176 REGINOT Alain E 49 03:13:17:000 00:38:44
177 GUYON Rémy C 45 03:13:32:000 00:38:59
178 VOYANT JEAN PAUL D 61 03:13:49:000 00:39:16
179 BLANCHARD Régis D 62 03:14:00:000 00:39:27
180 MARGUERITTE Anaïs A 6 03:14:10:000 00:39:37
181 DA SILVA Eduardo F 13 03:14:12:000 00:39:39
182 GUICHARD Jean-Marc E 50 03:14:17:000 00:39:44
183 DUEYMES Claude E 51 03:14:27:000 00:39:54
184 ROUSSEL François F 14 03:14:30:000 00:39:57
185 MAROC Laurent C 46 03:14:30:000 00:39:57
186 LAMBERT Alain E 52 03:14:47:000 00:40:14
187 VAN CORTENBOSCH Vincent D 63 03:14:50:000 00:40:17
188 BELLOT Sébastien D 64 03:14:51:000 00:40:18
189 GODRIE Bruno D 65 03:15:37:000 00:41:04
190 LOYER JEAN PIERRE F 15 03:16:19:000 00:41:46
191 RECCO ESTELLE D 66 03:16:47:000 00:42:14
192 TTHUNIER NICOLAS J 4 03:16:51:000 00:42:18
193 GAUTHIOT Gislain D 67 03:17:04:000 00:42:31
194 FLOCH Patrick E 53 03:17:30:000 00:42:57
195 GIROD Philippe D 68 03:17:36:000 00:43:03
196 COMMERCON Georges C 47 03:17:36:000 00:43:03
197 LEBLANC Thierry E 54 03:17:45:000 00:43:12
198 SEGUIMBRAUD Stéphane C 48 03:17:50:000 00:43:17
199 TURPAIN Daniel E 55 03:17:52:000 00:43:19
200 LAGRIFFOUL André F 16 03:17:55:000 00:43:22
201 COURBIS PIERRE C 49 03:17:58:000 00:43:25
202 GEAY Lionel C 50 03:18:22:000 00:43:49
204 BOUDJEMA Bouazza E 57 03:19:28:000 00:44:55
205 LANEYRIE DANIEL J 5 03:19:29:000 00:44:56
206 GUYON Philippe C 51 03:19:44:000 00:45:11
207 SEIGNEZ Christophe E 58 03:19:50:000 00:45:17
208 CHIROSSEL Laurent C 52 03:19:51:000 00:45:18
209 DARRIEUMERLOU Michel F 17 03:19:52:000 00:45:19
210 FRANCA ILIDIO E 59 03:19:54:000 00:45:21
211 TREVALLION Stephen E 60 03:20:13:000 00:45:40
212 CHABRIER Jean-Luc F 18 03:20:21:000 00:45:48
213 PAPOIN Jean-Michel D 69 03:20:39:000 00:46:06
214 BERNARD-GRANGER Noël F 19 03:20:41:000 00:46:08
215 FERLAY BERNARD F 20 03:20:46:000 00:46:13
216 ZUCALLI Hervé D 70 03:21:11:000 00:46:38
217 MICHELETTI Walter E 61 03:21:31:000 00:46:58
218 VARROD Loïc C 53 03:21:43:000 00:47:10
219 REBILLARD Stéphane D 71 03:21:52:000 00:47:19
220 HONORAT Fabrice D 72 03:21:53:000 00:47:20
221 NAVEZ Patrick F 21 03:22:08:000 00:47:35
222 NAVEZ Grégory C 54 03:22:08:000 00:47:35
223 FOURNIER Patrick F 22 03:22:37:000 00:48:04
224 LAMBERT Caroline A 7 03:23:23:000 00:48:50
225 PEREZ JUAN E 62 03:23:23:000 00:48:50
226 CATEL Christian F 23 03:23:24:000 00:48:51
227 FILLON Ludovic D 73 03:23:27:000 00:48:54
228 TURLONI JEAN LOUIS G 3 03:24:15:000 00:49:42
229 REBELO GERALDO Luis D 74 03:24:56:000 00:50:23
230 SIMON Serge D 75 03:25:06:000 00:50:33
231 IMBERT ANTOINE G 4 03:25:55:000 00:51:22
232 WILLE Xavier F 24 03:26:00:000 00:51:27
233 DERAET STEPHANE C 55 03:26:03:000 00:51:30
234 CUET Emmanuel D 76 03:26:15:000 00:51:42
235 LIECHTI Patrick E 63 03:26:17:000 00:51:44
236 ERMACORA Jean-Paul F 25 03:26:24:000 00:51:51
237 LAUBER Stéphane E 64 03:26:26:000 00:51:53
238 GIACOMIN Laurent D 77 03:26:36:000 00:52:03
239 DERNIERE MINUTE J 6 03:26:36:000 00:52:03
240 GIBERT Olivier D 78 03:26:42:000 00:52:09
241 TOUZOT Pascal E 65 03:26:58:000 00:52:25
242 FLECHET Régis E 66 03:27:03:000 00:52:30
244 PETEL MICHEL G 5 03:28:11:000 00:53:38
245 SPYSE Jean-François E 67 03:28:28:000 00:53:55
246 BONDI Franco D 79 03:29:17:000 00:54:44
247 PETIT DIDIER E 68 03:29:43:000 00:55:10
248 BISHOP Christopher E 69 03:29:51:000 00:55:18
249 RICHARD Luc D 80 03:30:21:000 00:55:48
250 BORNE Thimothée C 57 03:30:30:000 00:55:57
251 TISSEUR Gérald C 58 03:30:35:000 00:56:02
252 DOUSSON DANIEL F 26 03:30:54:000 00:56:21
253 POPART Henri E 70 03:31:47:000 00:57:14
254 AUBERT VERONIQUE A 8 03:32:01:000 00:57:28
255 POYET Albert G 6 03:32:27:000 00:57:54
256 FAURE Bernard-Louis F 27 03:32:31:000 00:57:58
257 LAPORTE Laurent D 81 03:32:46:000 00:58:13
258 BASCOP Pascal D 82 03:32:56:000 00:58:23
259 DUMAS Serge G 7 03:33:02:000 00:58:29
260 LAGARDE Thierry E 71 03:33:16:000 00:58:43
261 POUSSE Jean-Marc F 28 03:33:29:000 00:58:56
262 MONNOT Damien D 83 03:33:32:000 00:58:59
263 CARRE Frédéric C 59 03:34:22:000 00:59:49
264 GUIGNET ROBERT E 72 03:34:32:000 00:59:59
265 COLOMBET Christophe D 84 03:34:59:000 01:00:26
266 CURADEAU Christian F 29 03:35:44:000 01:01:11
267 PUGNET ALAIN F 30 03:35:45:000 01:01:12
268 FREY Sophie A 9 03:35:46:000 01:01:13
269 CARRE Marie-Stéphane A 10 03:35:47:000 01:01:14
270 GUYOT Michèle B 2 03:36:06:000 01:01:33
271 LAFAILLE ANNE A 11 03:36:07:000 01:01:34
272 TRICHARD CYRILLE E 73 03:36:20:000 01:01:47
273 HELBERT Daniel F 31 03:36:28:000 01:01:55
274 DENIER JEAN FRANCOIS E 74 03:36:30:000 01:01:57
275 KRAUSE RICHARD E 75 03:36:59:000 01:02:26
276 JELEFF ALAIN G 8 03:37:44:000 01:03:11
277 CHAPELON JEROME C 60 03:37:49:000 01:03:16
278 MORREL REGIS E 76 03:38:16:000 01:03:43
279 PECHOUX Florent D 85 03:38:24:000 01:03:51
280 PONVIENNE Daniel F 32 03:38:27:000 01:03:54
281 GUILLET LAURENT D 86 03:39:23:000 01:04:50
282 LUN PATRICK E 77 03:39:26:000 01:04:53
283 MAUGUET Damien D 87 03:40:11:000 01:05:38
284 FRAPPAT Laurent E 78 03:40:33:000 01:06:00
285 SAMBARDIER ALAIN F 33 03:40:47:000 01:06:14
286 BUCHOT ROBERT F 34 03:40:53:000 01:06:20
287 HOUX Bertrand E 79 03:41:06:000 01:06:33
288 VILLETTE Nathalie A 12 03:41:17:000 01:06:44
289 MAILLOT Christian F 35 03:41:18:000 01:06:45
290 BECK MARTIAL F 36 03:41:18:000 01:06:45
291 BARBET Didier E 80 03:41:21:000 01:06:48
292 DESPLANQUES Audrey A 13 03:41:28:000 01:06:55
293 MEURET Dominique E 81 03:41:30:000 01:06:57
294 VANCELLS JACQUES E 82 03:41:34:000 01:07:01
295 SIDO Valérie B 3 03:42:40:000 01:08:07
296 GUENON ALAIN E 83 03:44:14:000 01:09:41
297 DARD Serge G 9 03:45:54:000 01:11:21
298 BLANCARD Henry-Paul F 37 03:46:14:000 01:11:41
299 REBILLARD Jean-Yves F 38 03:46:51:000 01:12:18
300 LOISON JEAN FRANCOIS E 84 03:47:02:000 01:12:29
301 FABRE Ludovic C 61 03:47:05:000 01:12:32
302 HAUSTRATE JEAN LUC F 39 03:47:11:000 01:12:38
303 KULMA Sébastien C 62 03:47:52:000 01:13:19
304 COTTET Lionel D 88 03:48:15:000 01:13:42
305 REYNAUD JEAN CLAUDE F 40 03:48:15:000 01:13:42
306 CARTIER Denis E 85 03:48:42:000 01:14:09
307 BOSSELUT PATRICK E 86 03:49:00:000 01:14:27
308 PERRICHON LOUIS F 41 03:50:04:000 01:15:31
309 DOUBRE Thierry D 89 03:50:56:000 01:16:23
310 DESSEIGNE Christian E 87 03:51:36:000 01:17:03
311 BERT BERNARD F 42 03:51:37:000 01:17:04
312 ROUX MICHEL F 43 03:52:10:000 01:17:37
313 MAZZOLENI François C 63 03:52:39:000 01:18:06
314 OLLAGNIER Franck D 90 03:54:13:000 01:19:40
315 MAILLOCHEAU Michel F 44 03:55:07:000 01:20:34
316 HUMBERTCLAUDE Denis C 64 03:55:09:000 01:20:36
317 PAPIN Ghislain E 88 03:56:02:000 01:21:29
318 BERUBE FRANCOIS D 91 03:56:15:000 01:21:42
319 ANNEQUIN Jean-Philippe D 92 03:56:22:000 01:21:49
320 GAUCHIER REMY J 7 03:56:48:000 01:22:15
321 NORG DIDIER E 89 03:56:56:000 01:22:23
322 JUILLARD Patrick E 90 03:57:32:000 01:22:59
323 TISSEUR Fabrice D 93 03:58:19:000 01:23:46
324 BOURRET Roger E 91 03:58:32:000 01:23:59
325 BARTHES DIDIER E 92 03:58:37:000 01:24:04
326 LEGER BERNARD F 45 03:58:43:000 01:24:10
327 RESSICAUD Paul G 10 03:59:08:000 01:24:35
328 MORERO Jean C 65 03:59:12:000 01:24:39
329 MARQUES Jean-Louis F 46 03:59:13:000 01:24:40
330 DERNIERE MINUTE J 8 04:00:07:000 01:25:34
331 GARREAU Laurent E 93 04:00:12:000 01:25:39
332 SEON Gilles E 94 04:00:25:000 01:25:52
333 GAVALON Robert G 11 04:00:56:000 01:26:23
334 PERRAUD MICHEL F 47 04:01:27:000 01:26:54
335 JUNIQUE Vincent D 94 04:01:55:000 01:27:22
336 MORELLET STEPHEN C 66 04:02:24:000 01:27:51
337 MORELLET PHILIPPE E 95 04:02:26:000 01:27:53
338 MALLEVAL BERNARD F 48 04:03:44:000 01:29:11
339 CARRERAS Francis E 96 04:05:31:000 01:30:58
340 OUVRIER-BUFFET Jean-Luc E 97 04:05:55:000 01:31:22
341 GOCQUEVILLE MICHAEL D 95 04:05:56:000 01:31:23
342 DEBORDE Michel F 49 04:08:03:000 01:33:30
343 DEGACHE Ghislaine B 4 04:08:44:000 01:34:11
344 DEGACHE Jean-Paul F 50 04:08:44:000 01:34:11
345 GODET Richard F 51 04:10:19:000 01:35:46
346 MASSE Patrick E 98 04:12:56:000 01:38:23
347 BERLIOUX YVES E 99 04:13:11:000 01:38:38
348 BEDU Jean-François F 52 04:14:41:000 01:40:08
349 BERREZ CORALIE A 14 04:15:44:000 01:41:11
350 TOURASSE CHRISTOPHE E 100 04:15:56:000 01:41:23
351 GIORDANO Pascal E 101 04:16:04:000 01:41:31
352 HUET Jean-Charles F 53 04:20:32:000 01:45:59
353 HAETTICH Christian E 102 04:21:26:000 01:46:53
354 GILQUIN Jean-Pierre F 54 04:25:11:000 01:50:38
355 FOURNERIE MARIUS F 55 04:25:31:000 01:50:58
356 FENIE Patrick E 103 04:25:59:000 01:51:26
357 DUCLOS Guillaume D 96 04:30:50:000 01:56:17
358 DERNIERE MINUTE J 9 04:30:50:000 01:56:17
359 FROPIER Daniel G 12 04:30:54:000 01:56:21
360 MABILLOT Francine B 5 04:31:12:000 01:56:39
361 MABILLOT Claude G 13 04:31:12:000 01:56:39
362 FAYON Eric D 97 04:31:32:000 01:56:59
363 FENIE Christian G 14 04:32:04:000 01:57:31
364 GREGOIRE Michel G 15 04:33:39:000 01:59:06
365 HENNES Christian E 104 04:35:25:000 02:00:52
366 DEMEZ André G 16 04:36:00:000 02:01:27
368 VINCENT René G 17 04:43:47:000 02:09:14
369 DIDIER PHILIPPE E 105 04:50:30:000 02:15:57
370 BRAUN GEORGES F 57 04:58:01:000 02:23:28
371 BACHELIER DANIEL F 58 05:08:04:000 02:33:31
372 BOUCLIER Carole B 6 05:09:20:000 02:34:47
373 PEYRARD GILLES E 106 05:54:21:000 03:19:48
374 BRANTUS Dominique E 107 06:03:37:000 03:29:04
375 CALVIN Robert G 18 06:18:07:000 03:43:34

Haut 









Haut  
 Redaktion   Copyright Lesen: Hier klicken Um zu lesen !